| time (UTC) | temp C | wind direction | speed KPH | gust KPH | rain 1hr cm | rain 24hr cm | rain mn cm | humidity % | barometer mb |
| 20260502163037 | 11 | 27 | 0.0 | 8.0 | 0.00 | 0.00 | 0.00 | 49 | 1013.7 |
| 20260502161526 | 10 | 26 | 1.6 | 8.0 | 0.00 | 0.00 | 0.00 | 47 | 1014.0 |
| 20260502151520 | 9 | 27 | 0.0 | 9.7 | 0.00 | 0.00 | 0.00 | 51 | 1014.3 |
| 20260502123016 | 8 | 24 | 0.0 | 4.8 | 0.00 | 0.00 | 0.00 | 60 | 1014.1 |
| 20260502121513 | 8 | 294 | 0.0 | 4.8 | 0.00 | 0.00 | 0.00 | 59 | 1014.1 |
| 20260502114508 | 8 | 30 | 0.0 | 9.7 | 0.00 | 0.00 | 0.00 | 58 | 1013.8 |
| 20260502113006 | 8 | 314 | 0.0 | 1.6 | 0.00 | 0.00 | 0.00 | 57 | 1013.5 |
| 20260502111505 | 8 | 314 | 0.0 | 0.0 | 0.00 | 0.00 | 0.00 | 54 | 1013.6 |
| 20260502110004 | 8 | 314 | 0.0 | 4.8 | 0.00 | 0.00 | 0.00 | 53 | 1013.5 |
| 20260502104503 | 8 | 315 | 0.0 | 8.0 | 0.00 | 0.00 | 0.00 | 51 | 1013.4 |
| 20260502103003 | 8 | 281 | 0.0 | 4.8 | 0.00 | 0.00 | 0.00 | 51 | 1013.5 |
| 20260502101625 | 8 | 281 | 0.0 | 6.4 | 0.00 | 0.00 | 0.00 | 51 | 1013.5 |
| 20260502090107 | 9 | 292 | 0.0 | 6.4 | 0.00 | 0.00 | 0.00 | 58 | 1013.5 |
| 20260502071536 | 10 | 299 | 1.6 | 8.0 | 0.00 | 0.00 | 0.00 | 67 | 1012.8 |
| 20260502070052 | 10 | 299 | 0.0 | 4.8 | 0.00 | 0.00 | 0.00 | 66 | 1012.9 |
| 20260502064534 | 10 | 299 | 0.0 | 4.8 | 0.00 | 0.00 | 0.00 | 66 | 1012.9 |
| 20260502063037 | 10 | 302 | 0.0 | 3.2 | 0.00 | 0.00 | 0.00 | 65 | 1013.1 |
| 20260502061530 | 10 | 302 | 0.0 | 3.2 | 0.00 | 0.00 | 0.00 | 64 | 1013.2 |
| 20260502060027 | 11 | 302 | 0.0 | 4.8 | 0.00 | 0.00 | 0.00 | 63 | 1013.3 |
| 20260502054525 | 11 | 302 | 0.0 | 3.2 | 0.00 | 0.00 | 0.00 | 63 | 1013.1 |
| 20260502053024 | 11 | 336 | 0.0 | 8.0 | 0.00 | 0.00 | 0.00 | 61 | 1013.1 |
| 20260502051524 | 11 | 285 | 0.0 | 8.0 | 0.00 | 0.00 | 0.00 | 61 | 1013.1 |
| 20260502050026 | 11 | 325 | 3.2 | 14.5 | 0.00 | 0.00 | 0.00 | 61 | 1013.2 |
| 20260502044518 | 12 | 275 | 0.0 | 6.4 | 0.00 | 0.00 | 0.00 | 64 | 1013.3 |
| 20260502043016 | 12 | 275 | 0.0 | 6.4 | 0.00 | 0.00 | 0.00 | 63 | 1013.2 |
| 20260502041513 | 12 | 275 | 0.0 | 4.8 | 0.00 | 0.00 | 0.00 | 64 | 1013.2 |
| 20260502040011 | 12 | 277 | 0.0 | 3.2 | 0.00 | 0.00 | 0.00 | 63 | 1013.1 |
| 20260502034521 | 13 | 277 | 0.0 | 4.8 | 0.00 | 0.00 | 0.00 | 62 | 1013.1 |
| 20260502033011 | 13 | 277 | 0.0 | 3.2 | 0.00 | 0.00 | 0.00 | 60 | 1013.0 |
| 20260502031509 | 13 | 277 | 0.0 | 1.6 | 0.00 | 0.00 | 0.00 | 59 | 1012.9 |
| 20260502030008 | 13 | 277 | 0.0 | 3.2 | 0.00 | 0.00 | 0.00 | 58 | 1012.5 |
| 20260502024509 | 14 | 277 | 0.0 | 11.3 | 0.00 | 0.00 | 0.00 | 58 | 1012.6 |
| 20260502023008 | 14 | 260 | 0.0 | 3.2 | 0.00 | 0.00 | 0.00 | 59 | 1012.4 |
| 20260502021507 | 14 | 260 | 0.0 | 0.0 | 0.00 | 0.00 | 0.00 | 62 | 1011.9 |
| 20260502020007 | 14 | 260 | 0.0 | 0.0 | 0.00 | 0.00 | 0.00 | 61 | 1011.4 |
| 20260502014507 | 14 | 260 | 0.0 | 0.0 | 0.00 | 0.00 | 0.00 | 61 | 1011.3 |
| 20260502013006 | 13 | 260 | 0.0 | 12.9 | 0.00 | 0.00 | 0.00 | 61 | 1011.3 |
| 20260502011516 | 13 | 300 | 0.0 | 0.0 | 0.00 | 0.00 | 0.00 | 63 | 1010.9 |
| 20260502010010 | 14 | 300 | 0.0 | 0.0 | 0.00 | 0.00 | 0.00 | 60 | 1010.9 |
| 20260502004505 | 14 | 300 | 0.0 | 8.0 | 0.00 | 0.00 | 0.00 | 60 | 1010.6 |
| 20260502003004 | 15 | 246 | 0.0 | 8.0 | 0.00 | 0.00 | 0.00 | 58 | 1010.4 |
| 20260502001504 | 15 | 120 | 0.0 | 4.8 | 0.00 | 0.00 | 0.00 | 59 | 1010.2 |
| 20260502000003 | 15 | 342 | 0.0 | 6.4 | 0.00 | 0.00 | 0.00 | 57 | 1009.7 |
| 20260501234502 | 15 | 342 | 0.0 | 4.8 | 0.00 | 0.00 | 0.00 | 58 | 1009.2 |
| 20260501233004 | 15 | 342 | 0.0 | 3.2 | 0.00 | 0.00 | 0.00 | 56 | 1009.3 |
| 20260501231600 | 16 | 342 | 0.0 | 6.4 | 0.00 | 0.00 | 0.00 | 56 | 1009.4 |
| 20260501230104 | 16 | 338 | 0.0 | 4.8 | 0.00 | 0.00 | 0.00 | 55 | 1009.5 |
| 20260501224600 | 16 | 338 | 0.0 | 3.2 | 0.00 | 0.00 | 0.00 | 53 | 1009.5 |
| 20260501223059 | 16 | 313 | 0.0 | 6.4 | 0.00 | 0.00 | 0.00 | 54 | 1009.5 |
| 20260501221558 | 16 | 286 | 0.0 | 0.0 | 0.00 | 0.00 | 0.00 | 54 | 1009.6 |
| 20260501220136 | 17 | 286 | 0.0 | 4.8 | 0.00 | 0.00 | 0.00 | 50 | 1009.8 |
| 20260501214555 | 17 | 286 | 0.0 | 4.8 | 0.00 | 0.00 | 0.00 | 53 | 1009.8 |
| 20260501213102 | 17 | 286 | 1.6 | 6.4 | 0.00 | 0.00 | 0.00 | 51 | 1010.0 |
| 20260501211554 | 17 | 323 | 1.6 | 6.4 | 0.00 | 0.00 | 0.00 | 50 | 1010.2 |
| 20260501210105 | 17 | 327 | 0.0 | 3.2 | 0.00 | 0.00 | 0.00 | 52 | 1010.1 |
| 20260501204554 | 17 | 327 | 0.0 | 9.7 | 0.00 | 0.00 | 0.00 | 49 | 1010.4 |
| 20260501203049 | 17 | 331 | 0.0 | 6.4 | 0.00 | 0.00 | 0.00 | 47 | 1010.5 |
| 20260501201546 | 17 | 331 | 1.6 | 9.7 | 0.00 | 0.00 | 0.00 | 48 | 1010.7 |
| 20260501200046 | 17 | 20 | 0.0 | 6.4 | 0.00 | 0.00 | 0.00 | 48 | 1011.0 |
| 20260501194545 | 17 | 17 | 0.0 | 8.0 | 0.00 | 0.00 | 0.00 | 48 | 1011.5 |
| 20260501193047 | 17 | 26 | 0.0 | 6.4 | 0.00 | 0.00 | 0.00 | 48 | 1011.6 |
| 20260501191537 | 17 | 57 | 0.0 | 6.4 | 0.00 | 0.00 | 0.00 | 49 | 1011.8 |
| 20260501190038 | 17 | 332 | 1.6 | 4.8 | 0.00 | 0.00 | 0.00 | 45 | 1012.0 |
| 20260501184533 | 16 | 347 | 0.0 | 6.4 | 0.00 | 0.00 | 0.00 | 47 | 1012.1 |
| 20260501183037 | 16 | 29 | 1.6 | 4.8 | 0.00 | 0.00 | 0.00 | 48 | 1012.3 |
| 20260501181549 | 16 | 48 | 0.0 | 6.4 | 0.00 | 0.00 | 0.00 | 49 | 1012.6 |
| 20260501180024 | 16 | 56 | 0.0 | 4.8 | 0.00 | 0.00 | 0.00 | 49 | 1012.9 |
| 20260501174523 | 15 | 67 | 0.0 | 8.0 | 0.00 | 0.00 | 0.00 | 49 | 1012.9 |
| 20260501173021 | 15 | 19 | 0.0 | 9.7 | 0.00 | 0.00 | 0.00 | 50 | 1013.3 |
| 20260501171520 | 15 | 293 | 0.0 | 4.8 | 0.00 | 0.00 | 0.00 | 51 | 1013.4 |